Location: Erfurt
(50.9688°N, 11.0193°E)
Time: 04:03:45
(UTC+01:00)

ISS - Visible Passes

Search period start: 22 February 2018 00:00
Search period end: 04 March 2018 00:00
Orbit: 403 x 407 km, 51.6° (Epoch: 22 February)

Date Brightness Start Highest point End Pass type
(mag) Time Alt. Az. Time Alt. Az. Time Alt. Az.
26 Feb -0.8 06:25:47 10° S 06:27:27 13° SE 06:29:08 10° ESE visible
28 Feb -1.6 06:16:23 10° SSW 06:19:05 24° SE 06:21:48 10° E visible
01 Mar -1.1 05:24:56 10° S 05:27:00 16° SE 05:29:05 10° ESE visible
02 Mar -2.7 06:07:40 10° SW 06:10:47 41° SSE 06:13:54 10° E visible
03 Mar -2.1 05:16:55 18° SSW 05:18:35 28° SSE 05:21:27 10° E visible
